Regional Weather Roundup
Issued by NWS Upton, NY

Current Version | Previous Version | Graphics & Text | Print | Product List | Glossary Off
Versions: 1 2 3 4 5 6 7 8 9 10 11 12 13 14 15 16 17 18 19 20 21 22 23 24 25 26 27 28 29 30 31 32 33 34 35 36 37 38 39 40 41 42 43 44 45 46 47 48 49 50

000
ASUS41 KOKX 061318
RWROKX

REGIONAL WEATHER ROUNDUP
NATIONAL WEATHER SERVICE NEW YORK NY
900 AM EDT MON JUL 06 2015

NOTE: "FAIR" INDICATES FEW OR NO CLOUDS BELOW 12,000 FEET WITH NO
SIGNIFICANT WEATHER AND/OR OBSTRUCTIONS TO VISIBILITY.

NYZ071-072-176-178-NJZ106-104-061400-
NEW YORK CITY METRO AREA


CITY           SKY/WX    TMP DP  RH WIND       PRES   REMARKS
CENTRAL PARK   MOSUNNY   77  67  71 CALM      30.18F HAZE
LAGUARDIA APRT PTSUNNY   75  67  76 E5        30.15F
KENNEDY INTL   PTSUNNY   77  69  76 S5        30.17S
NEWARK/LIBERTY PTSUNNY   78  68  71 CALM      30.15F
BRNX BOT. GARD   N/A     77  66  69 SE6       30.19R
TETERBORO      SUNNY     76  67  73 SW3       30.15S
$$

NYZ177-179-078>081-061400-
LONG ISLAND NEW YORK

CITY           SKY/WX    TMP DP  RH WIND       PRES   REMARKS
FARMINGDALE    MOSUNNY   76  68  76 SW5       30.16F
ISLIP          NOT AVBL
SHIRLEY        NOT AVBL
WESTHAMPTON    MOSUNNY   76  70  82 W5        30.18S
MONTAUK POINT    N/A     72  67  84 SE3       30.18S
$$

NYZ052-065-067-061400-
HUDSON VALLEY

CITY           SKY/WX    TMP DP  RH WIND       PRES   REMARKS
WHITE PLAINS   NOT AVBL
NEWBURGH       MOSUNNY   70  66  88 CALM      30.18S
MONTGOMERY     MOSUNNY   70  66  87 CALM      30.17S
POUGHKEEPSIE   MOSUNNY   70  63  78 CALM      30.16S
ALBANY         MOSUNNY   70  63  78 CALM      30.17R
$$

NJZ001-105-106-008-010-013-015-019>022-104-061400-
NEW JERSEY

CITY           SKY/WX    TMP DP  RH WIND       PRES   REMARKS
NEWARK/LIBERTY PTSUNNY   78  68  71 CALM      30.15F
TETERBORO      SUNNY     76  67  73 SW3       30.15S
CALDWELL       SUNNY     73  65  75 CALM      30.17S
MORRISTOWN     PTSUNNY   77  70  78 CALM      30.17S
SOMERVILLE     MOSUNNY   74  66  76 CALM      30.14S
SUSSEX         MOSUNNY   71  64  78 CALM      30.17S
ANDOVER          N/A     73  66  78 CALM      30.18S
TRENTON        PTSUNNY   76  69  79 S5        30.15S
MILLVILLE      PTSUNNY   76  71  85 SE7       30.14R
ATLANTIC CITY  CLOUDY    77  70  79 E8        30.16R
WRIGHTSTOWN    PTSUNNY   77  70  78 SE3       30.14R
TOMS RIVER     PTSUNNY   75  68  78 CALM      30.17R
BELMAR         PTSUNNY   75  66  73 S5        30.17R
$$

PAZ047>061-062-071-061400-
EASTERN PENNSYLVANIA

CITY           SKY/WX    TMP DP  RH WIND       PRES   REMARKS
PHILADELPHIA   PTSUNNY   78  70  76 E5        30.15R
ALLENTOWN      MOSUNNY   74  67  78 NE3       30.16S
SCRANTON       CLOUDY    70  61  73 CALM      30.17S
$$

CTZ002-004>006-009-010-012-RIZ004-006-007-MAZ004-011-015-061400-
SOUTHERN NEW ENGLAND
 IN CT

CITY           SKY/WX    TMP DP  RH WIND       PRES   REMARKS
BRADLEY INTL   PTSUNNY   68  61  78 CALM      30.16S
HARTFORD       MOSUNNY   70  65  84 SE8       30.16S
DANBURY        MOSUNNY   71  64  78 CALM      30.18F
WTRBRY/OXFORD  SUNNY     72  63  73 CALM      30.20F
BRIDGEPORT     MOSUNNY   74  67  78 CALM      30.16F
MERIDEN        MOSUNNY   72  65  78 CALM      30.16F
NEW HAVEN      PTSUNNY   72  67  84 S3        30.16F
CHESTER        FAIR      73  66  78 CALM      30.18F
GROTON         NOT AVBL
WILLIMANTIC    PTSUNNY   67  63  87 CALM      30.17F

 IN RI

CITY           SKY/WX    TMP DP  RH WIND       PRES   REMARKS
PROVIDENCE     PTSUNNY   73  64  73 S3          N/A
BLOCK ISLAND   PTSUNNY   72  64  78 SW9       30.17S
WESTERLY       PTSUNNY   72  66  81 SW5       30.17F

 IN MA

CITY           SKY/WX    TMP DP  RH WIND       PRES   REMARKS
BOSTON         PTSUNNY   76  62  62 CALM      30.16R
WORCESTER      PTSUNNY   76  60  57 SW6       30.19S
WESTFIELD      PTSUNNY   67  62  84 CALM      30.17S
PROVINCETOWN   MOSUNNY   72  14  11 W5        30.16S
NANTUCKET      PTSUNNY   70  66  87 W10       30.17R
$$

ANZ330-335-338-340-345-350-353-355-061400-
COASTAL MARINE OBSERVATIONS


STATION/POSITION TIME  SKY/WX   TEMP    WIND        PRES    VSBY  WAVE
                                AIR SEA DIR/SP/G                  HT/PER
                 (UTC)          (F)     (DEG/KT/KT) (MB)    (MI)  (FT/S)
NY HARB ENTRANCE 1250            72 71  130/  2/  2 1021.2          2/ 7
4S FIRE IS       1203               70                N/A           2/ 7
20S FIRE ISLAND  1250            71 70  130/  2/  4 1021.2          2/ 7
GREAT SOUTH BAY  1200            73 75  240/  4/  6   N/A
23SW MTP         1250            69 68  210/  4/  4 1021.3          3/ 7
HUDSON CANYON    NOT AVBL
KINGS POINT      1200            71 68  360/  1/  3 1020.8
CENTRAL LI SOUND NOT AVBL
EASTERN LI SOUND 1200            66 64   30/  2/  4   N/A
ROBBINS REEF     1200            72      CALM  /  1 1020.2
$$


>>>>>>>>>>>>>>>>>>>>>>>>>>>> KEY <<<<<<<<<<<<<<<<<<<<<<<<<<<
>                                                          <
>     SKY/WX - SKY CONDITION/PRESENT WEATHER               <
>     TMP    - TEMPERATURE IN FAHRENHEIT                   <
>     DP     - DEWPOINT IN FAHRENHEIT                      <
>     RH     - RELATIVE HUMIDITY IN PERCENT                <
>     WIND   - DIRECTION AND SPEED IN MPH                  <
>     PRES   - MEAN SEA LEVEL PRESSURE IN INCHES OF HG     <
>     WCI    - WIND CHILL INDEX                            <
>     VSB    - VISIBILITY IN MILES                         <
>     HX     - HEAT INDEX                                  <
>     TC     - TEMPERATURE IN CELSIUS                      <
>     VRB    - VARIABLE WIND DIRECTION                     <
>                                                          <
>>>>>>>>>>>>>>>>>>>>>>>>>>>> KEY <<<<<<<<<<<<<<<<<<<<<<<<<<<





USA.gov is the U.S. government's official web portal to all federal, state and local government web resources and services.